McConnell AFB, KS

4:43 AM CST on December 14, 2019 (GMT -0600)
McConnell Air Force Base

Weather History for KIAB - June, 2019

Change the Weather History Date:

Sunday, June 9, 2019

  Actual Average Record
Temperature  
Mean Temperature 68 °F -  
Max Temperature 74 °F 80 °F 100 °F (2011)
Min Temperature 61 °F 61 °F 54 °F (2007)
Cooling Degree Days 3    
Growing Degree Days 18 (Base 50)    
Moisture  
Dew Point 60 °F    
Average Humidity 76    
Maximum Humidity 100    
Minimum Humidity 57    
Precipitation  
Precipitation 0.28 in - - ()
Sea Level Pressure  
Sea Level Pressure 30.08 in    
Wind  
Wind Speed 13 mph (NW)    
Max Wind Speed 26 mph    
Max Gust Speed 33 mph    
Visibility 10 miles    
Events Rain , Thunderstorm    
Averages and records for this station are not official NWS values.
T = Trace of Precipitation, MM = Missing Value Source: NWS Daily Summary

Daily Weather History Graph

Daily Weather History Graph

Search for Another Location

Airport or City:

Astronomy

Jun. 09, 2019 Rise Set
Actual Time 6:07 AM CDT 8:49 PM CDT
Civil Twilight 5:36 AM CDT 9:20 PM CDT
Nautical Twilight 4:57 AM CDT 9:59 PM CDT
Astronomical Twilight 4:14 AM CDT 10:42 PM CDT
Moon 12:43 PM CDT (6/9) 1:34 AM CDT (6/9)
Length of Visible Light 15h 44m
Length of Day
14h 42m
Waxing Crescent, 44% of the Moon is Illuminated
Jun 9
Waxing Crescent
Jun 10
First Quarter
Jun 17
Full
Jun 25
Last Quarter
Jul 2
New

Hourly Weather History & Observations

Time (CDT) Temp. Dew Point Humidity Pressure Visibility Wind Dir Wind Speed Gust Speed Precip Events Conditions
12:56 AM 74.5 °F 61.9 °F 65% 29.85 in 10.0 mi East 6.9 mph - N/A   Clear
1:56 AM 73.2 °F 61.5 °F 67% 29.85 in 10.0 mi East 6.9 mph - N/A   Clear
2:56 AM 71.6 °F 62.4 °F 73% 29.87 in 10.0 mi ENE 6.9 mph - N/A   Clear
3:56 AM 71.8 °F 62.6 °F 73% 29.92 in 10.0 mi WNW 5.8 mph - N/A   Mostly Cloudy
4:25 AM 71.6 °F 60.8 °F 69% 29.96 in 10.0 mi WNW 24.2 mph 32.2 mph N/A Rain Light Rain
4:29 AM 71.6 °F 60.8 °F 69% 29.96 in 10.0 mi WNW 20.7 mph 31.1 mph N/A Rain Light Rain
4:56 AM 67.1 °F 62.8 °F 86% 29.96 in 10.0 mi NW 16.1 mph - 0.01 in Rain Light Rain
5:08 AM 66.2 °F 62.6 °F 88% 29.96 in 10.0 mi NNW 10.4 mph - N/A Rain , Thunderstorm Light Thunderstorms and Rain
5:23 AM 66.2 °F 62.6 °F 88% 29.91 in 6.0 mi NNE 18.4 mph - N/A Rain Heavy Rain
5:56 AM 66.2 °F 64.0 °F 93% 29.98 in 10.0 mi West 9.2 mph - 0.08 in Rain Light Rain
6:01 AM 66.2 °F 64.4 °F 94% 30.00 in 10.0 mi West 13.8 mph - N/A Rain Rain
6:56 AM 66.7 °F 65.5 °F 96% 30.03 in 10.0 mi NW 15.0 mph - 0.08 in Rain Light Rain
7:27 AM 68.0 °F 66.2 °F 94% 29.99 in 7.0 mi East 6.9 mph - N/A Rain Light Rain
7:56 AM 66.6 °F 65.3 °F 96% 29.96 in 10.0 mi Calm Calm - 0.11 in Rain Light Rain
8:00 AM 66.2 °F 66.2 °F 100% 29.96 in 10.0 mi East 4.6 mph - N/A   Overcast
8:56 AM 68.7 °F 66.2 °F 92% 30.03 in 10.0 mi WNW 8.1 mph - 0.00 in   Mostly Cloudy
9:22 AM 68.0 °F 66.2 °F 94% 30.05 in 10.0 mi NW 12.7 mph - N/A   Mostly Cloudy
9:56 AM 69.4 °F 65.3 °F 87% 30.08 in 10.0 mi West 9.2 mph - N/A   Scattered Clouds
10:09 AM 69.8 °F 66.2 °F 88% 30.08 in 10.0 mi West 11.5 mph - N/A   Mostly Cloudy
10:45 AM 71.6 °F 64.4 °F 78% 30.09 in 10.0 mi NW 11.5 mph - N/A   Mostly Cloudy
10:52 AM 73.4 °F 64.4 °F 73% 30.09 in 10.0 mi NW 13.8 mph - N/A   Mostly Cloudy
10:56 AM 72.7 °F 64.9 °F 77% 30.09 in 10.0 mi WNW 12.7 mph - N/A   Mostly Cloudy
11:35 AM 71.6 °F 64.4 °F 78% 30.10 in 10.0 mi NW 17.3 mph - N/A   Overcast
11:38 AM 71.6 °F 64.4 °F 78% 30.11 in 10.0 mi NNW 16.1 mph - N/A   Overcast
11:39 AM 71.6 °F 64.4 °F 78% 30.11 in 10.0 mi NW 17.3 mph - N/A   Overcast
11:46 AM 71.6 °F 62.6 °F 73% 30.11 in 10.0 mi NW 18.4 mph 26.5 mph N/A   Overcast
11:56 AM 68.5 °F 62.8 °F 82% 30.12 in 10.0 mi NW 17.3 mph 26.5 mph N/A   Overcast
12:38 PM 66.2 °F 60.8 °F 83% 30.13 in 10.0 mi NW 19.6 mph - N/A   Overcast
12:56 PM 66.6 °F 60.3 °F 80% 30.13 in 10.0 mi NW 17.3 mph 25.3 mph N/A   Overcast
1:09 PM 66.2 °F 59.0 °F 78% 30.14 in 10.0 mi NW 16.1 mph 28.8 mph N/A   Overcast
1:33 PM 68.0 °F 59.0 °F 73% 30.15 in 10.0 mi NW 16.1 mph 25.3 mph N/A   Overcast
1:56 PM 67.6 °F 58.6 °F 73% 30.15 in 10.0 mi WNW 19.6 mph - N/A   Overcast
2:22 PM 68.0 °F 59.0 °F 73% 30.17 in 10.0 mi NW 18.4 mph 26.5 mph N/A   Overcast
2:56 PM 67.5 °F 57.4 °F 70% 30.17 in 10.0 mi WNW 19.6 mph 27.6 mph N/A   Overcast
3:56 PM 69.1 °F 56.3 °F 64% 30.18 in 10.0 mi NW 18.4 mph 26.5 mph N/A   Overcast
4:24 PM 69.8 °F 55.4 °F 60% 30.18 in 10.0 mi NW 18.4 mph 28.8 mph N/A   Overcast
4:56 PM 70.0 °F 54.0 °F 57% 30.19 in 10.0 mi NW 18.4 mph 28.8 mph N/A   Overcast
5:56 PM 68.7 °F 52.9 °F 57% 30.20 in 10.0 mi NW 26.5 mph 33.4 mph N/A   Overcast
6:56 PM 67.5 °F 51.6 °F 57% 30.21 in 10.0 mi NW 23.0 mph 28.8 mph N/A   Clear
7:56 PM 65.7 °F 50.9 °F 59% 30.23 in 10.0 mi NW 19.6 mph - N/A   Overcast
8:56 PM 64.9 °F 50.2 °F 59% 30.25 in 10.0 mi NW 17.3 mph 21.9 mph N/A   Overcast
9:56 PM 63.3 °F 50.5 °F 63% 30.26 in 10.0 mi NW 13.8 mph 20.7 mph N/A   Mostly Cloudy
10:56 PM 62.1 °F 50.5 °F 66% 30.28 in 10.0 mi NW 12.7 mph - N/A   Clear
11:56 PM 61.5 °F 48.7 °F 63% 30.30 in 10.0 mi NW 15.0 mph - N/A   Clear